Regional Weather Roundup
Issued by NWS

Home | Current Version | Previous Version | Graphics & Text | Print | Product List | Glossary On
Versions: 1 2 3 4 5 6 7 8 9 10 11 12 13 14 15 16 17 18 19 20 21 22 23 24 25 26 27 28 29 30 31 32 33 34 35 36 37 38 39 40 41 42 43 44 45 46 47 48 49 50
000
ASUS43 KMPX 302201
RWRMN
WEATHER ROUNDUP FOR MINNESOTA
NATIONAL WEATHER SERVICE TWIN CITIES/CHANHASSEN MN
500 PM CDT SAT APR 30 2016


NOTE: "FAIR" INDICATES FEW OR NO CLOUDS BELOW 12,000 FEET WITH NO
SIGNIFICANT WEATHER AND/OR OBSTRUCTIONS TO VISIBILITY. N/A MEANS
CURRENT SKY AND/OR WEATHER CONDITIONS ARE NOT AVAILABLE.

MNZ060>063-068>070-302300-
   Twin Cities Metro

CITY           SKY/WX    TMP DP  RH WIND       PRES   REMARKS
TWIN CITIES    CLOUDY    57  34  41 E15       30.03F
ST PAUL        CLOUDY    57  35  43 E14       30.04F
CRYSTAL        CLOUDY    59  33  37 NE13G22   30.02F
BLAINE         CLOUDY    61  36  39 E14G21    30.04F
EDEN PRAIRIE   CLOUDY    57  33  40 E13       30.01F
SOUTH ST PAUL  CLOUDY    57  33  39 NE13      30.03F
LAKE ELMO      FAIR      57  36  44 E14       30.05S
$$
MNZ001>005-007-008-013>017-022>024-027-028-302300-
   Northwest Minnesota

CITY           SKY/WX    TMP DP  RH WIND       PRES   REMARKS
BEMIDJI        PTSUNNY   56  30  36 NE10G29   30.17R
HALLOCK        SUNNY     63  23  22 NE17G24   30.21F
ROSEAU         SUNNY     57  32  38 NE20G28   30.23S
WARROAD        SUNNY     52  34  50 NE10      30.25F
THIEF RVR FALL SUNNY     57  25  28 NE17G26   30.21R
CROOKSTON      SUNNY     61  28  29 NE16G22   30.20R
FOSSTON        SUNNY     59  27  29 NE16G26   30.18S
DETROIT LAKES  MOSUNNY   59  28  31 NE10G22   30.13F
MOORHEAD       CLOUDY    63  27  25 NE14G24   30.13S
PARK RAPIDS    CLOUDY    58  27  30 E15G21    30.13S
MAHNOMEN       FAIR      59  28  30 E15G26    30.14S
$$
MNZ006-009>011-018-025>026-302300-
   North Central Minnesota

CITY           SKY/WX    TMP DP  RH WIND       PRES   REMARKS
BAUDETTE       SUNNY     57  25  29 NE12      30.21F
FLAG ISLAND    SUNNY     54  27  35 N17       30.25F
INTL FALLS     SUNNY     56  26  31 E13G23    30.21F
WASKISH        SUNNY     57  30  35 NE15G22   30.20S
BIG FORK       SUNNY     57  27  30 E13G22    30.19R
LONGVILLE      CLOUDY    57  28  33 E8        30.14S
GRAND RAPIDS   CLOUDY    55  28  35 SE14G21   30.18R
CRANE LAKE     SUNNY     55  23  28 N6        30.22S
ORR            SUNNY     57  21  24 E5        30.18R
COOK           MOSUNNY   55  28  35 E9        30.20S
WALKER         MOCLDY    56  31  39 E9        30.15S
$$
MNZ012-019>021-037-302300-
   Northeast Minnesota

CITY           SKY/WX    TMP DP  RH WIND       PRES   REMARKS
DULUTH         CLOUDY    47  26  44 E22G30    30.21S
ELY            MOSUNNY   52  23  32 NE10G21   30.21R
HIBBING        PTSUNNY   51  30  44 SE15G23   30.18R
EVELETH        CLOUDY    52  28  40 SE10G17   30.21R
DULUTH HARBOR  CLOUDY    41  36  81 NE25      30.23S
TWO HARBORS    SUNNY     48  34  57 E16G25    30.23R
SILVER BAY     MOSUNNY   45  30  57 NE12G18   30.24S
GRAND MARAIS     N/A     45  30  55 NE7       30.26F
G MARAIS ARPRT PTSUNNY   45  25  45 SE10G17   30.23S
$$
MNZ029>031-032-039>041-046>048-054>057-064-302300-
   West Central Minnesota

CITY           SKY/WX    TMP DP  RH WIND       PRES   REMARKS
FERGUS FALLS   CLOUDY    59  30  33 E17       30.07S
WHEATON        CLOUDY    61  36  39 NE14G24   30.09S
MORRIS         CLOUDY    59  36  41 NE23G29   30.06S
ALEXANDRIA     PTSUNNY   57  33  40 E21G26    30.09S
ELBOW LAKE     FAIR      57  32  38 NE16G24   30.09S
WADENA         CLOUDY    57  30  35 E14G22    30.10S
GLENWOOD       CLOUDY    57  34  41 NE23G31   30.07F
APPLETON       CLOUDY    59  30  33 NE20G26   30.03F
BENSON         PTSUNNY   57  30  35 E20G25    30.05S
ORTONVILLE     CLOUDY    55  36  47 NE12G21   30.05S
MADISON        CLOUDY    55  34  44 E21G29    30.03S
WILLMAR        FAIR      57  36  44 E17G25    30.04F
$$
MNZ033>034-036-042>043-049>051-058-059-302300-
   Central Minnesota

CITY           SKY/WX    TMP DP  RH WIND       PRES   REMARKS
ST CLOUD       CLOUDY    56  35  45 NE20G29   30.07S
SAUK CENTRE    FAIR      55  34  45 NE20G26   30.08F
PAYNESVILLE    CLOUDY    56  32  39 NE17G25   30.05F
AITKIN         CLOUDY    55  25  30 NE16G24   30.15S
PINE RIVER     CLOUDY    55  34  44 SE10G20   30.17R
BRAINERD       CLOUDY    52  26  36 E14G21    30.15R
STAPLES        CLOUDY    55  28  35 E14G23    30.12R
LONG PRAIRIE   FAIR      54  32  43 NE20G26   30.10S
LITTLE FALLS   MOSUNNY   54  30  40 NE10G20   30.11S
LITCHFIELD     CLOUDY    57  36  44 NE17      30.03F
BUFFALO        CLOUDY    56  34  42 NE17G24   30.04F
MAPLE LAKE     CLOUDY    57  37  47 NE12G21   30.06S
HUTCHINSON     SUNNY     56  38  50 NE16G23   30.03F
$$
MNZ037-044-045-052-053-302300-
   East Central Minnesota

CITY           SKY/WX    TMP DP  RH WIND       PRES   REMARKS
PRINCETON      CLOUDY    57  36  44 NE17G25   30.08S
MORA           PTSUNNY   54  30  40 NE10G20   30.12F
CAMBRIDGE      CLOUDY    57  37  47 NE14G26   30.07S
RUSH CITY      CLOUDY    55  32  42 NE18G25   30.10S
MOOSE LAKE     CLOUDY    52  30  43 NE15G24   30.15F
HINCKLEY       FAIR      54  32  43 NE10G25   30.12S
CLOQUET        CLOUDY    46  25  42 E22G29    30.19S
MCGREGOR       CLOUDY    52  32  46 E13G23    30.17F
$$
MNZ071>073-080-081-089-090-097-098-302300-
   Southwest Minnesota

CITY           SKY/WX    TMP DP  RH WIND       PRES   REMARKS
MONTEVIDEO     CLOUDY    57  36  44 E18       30.04S
GRANITE FALLS  CLOUDY    57  37  46 NE16G25   30.03S
CANBY          CLOUDY    57  37  47 NE18G30   30.02S
MARSHALL       CLOUDY    53  37  54 E18       30.00S
REDWOOD FALLS  CLOUDY    54  34  46 E14G24    30.01S
OLIVIA         CLOUDY    54  32  43 E14G21    30.01S
PIPESTONE      CLOUDY    46  39  76 E20G29    29.94R
WINDOM         LGT RAIN  45  41  87 E23       29.98S
WORTHINGTON    LGT RAIN  43  39  86 E29G35    29.95R
JACKSON        LGT SNOW  43  39  87 NE32G40   29.95S
TRACY          RAIN      47  41  79 E17G23    30.00R
SLAYTON        DRIZZLE   43  40  89 NE30G40   29.96R
$$
MNZ065>067-074>077-082>085-091>093-302300-
   South Central Minnesota

CITY           SKY/WX    TMP DP  RH WIND       PRES   REMARKS
MANKATO        CLOUDY    48  37  66 E12G23    30.01F
NEW ULM        LGT RAIN  48  37  66 E20G29    30.01S
ST JAMES       LGT RAIN  41  37  87 E16G23    30.01F
FAIRMONT       CLOUDY    43  32  65 NE21      29.98R
GLENCOE        CLOUDY    56  38  50 NE15G21   30.01F
FARIBAULT      CLOUDY    52  37  58 E12G18    30.02F
OWATONNA       HVY RAIN  46  39  76 E23G29    30.01F
WASECA         LGT RAIN  45  39  81 E20G26    30.02F
ALBERT LEA     CLOUDY    43  43 100 NE18G26   29.98S
$$
MNZ078>079-086>088-094>096-302300-
   Southeast Minnesota

CITY           SKY/WX    TMP DP  RH WIND       PRES   REMARKS
ROCHESTER      RAIN      45  41  86 E13       30.02S FOG
RED WING       CLOUDY    57  34  41 E7        30.02S
STANTON        CLOUDY    55  37  50 E8        30.01S
DODGE CENTER   LGT RAIN  43  41  93 E20G25    30.01F
WINONA         LGT RAIN  48  37  66 E15G29    30.06R
AUSTIN         LGT RAIN  45  39  81 NE16G22   29.96F
PRESTON        RAIN      43  39  88 E13G21    30.01S
$$
ABBREVIATIONS USED IN REMARKS
   TC - TEMPERATURES IN CELSIUS
  WCI - WIND CHILL INDEX
   HX - HEAT INDEX
  VSB - VISIBILITY
$$




USA.gov is the U.S. government's official web portal to all federal, state and local government web resources and services.